Zurück zum Katalog

STARLINK-35820

AktivKommunikationVLEO
NORAD 66597·PAYLOAD·🇺🇸 United States

Gestartet Nov 22, 2025 von Cape Canaveral Space Force Station

Loading…

Nächste Überflüge (nächste 24 Stunden)

TLE

AktuellSource: CelesTrak SupGP

Epoche: Sep 15, 2026, 04:10 UTC

1 66597C 25270K   26258.17409722 -.00060827  00000+0 -22047-2 0  2583
2 66597  43.0014  66.1690 0001481 271.3058 100.2909 15.27584911    10

Verfolge STARLINK-35820 in Echtzeit mit AllMySat

Download on the App Store